GEFSSGP_con_maxscp_246.txt.gz
SCP
1 0 1 1 0 0 0 0 0 0 0 0 0 0 0 0 0 0 0 0 0 0 0 0 0 0 0 0 0 0 0 0 0 0 0 0 0 0 0 0 0 1 1 1 1 1 1 0 0
0 0 0 0 0 0 0 0 0 0 1 1 0 0 0 0 0 0 0 0 0 0 0 0 0 0 0 0 0 0 0 0 0 0 0 0 0 0 0 0 0 1 1 1 1 1 1 0 0
0 0 0 0 0 0 0 1 1 1 1 1 0 0 0 0 0 0 0 0 0 0 0 1 1 0 0 0 0 0 0 0 0 0 0 0 0 0 0 0 1 1 1 1 1 1 0 0 0
0 0 0 0 0 0 0 1 1 1 1 1 1 0 0 0 0 0 0 0 0 0 0 1 1 1 0 0 0 0 0 0 0 0 0 0 0 0 0 1 1 1 1 1 1 1 0 0 0
0 0 0 0 0 0 1 1 1 1 1 1 1 0 0 0 1 1 1 1 0 0 0 1 1 1 0 0 0 0 0 1 0 0 0 0 0 0 0 1 1 1 1 1 1 0 0 0 1
0 0 0 0 0 1 1 1 1 1 1 1 1 0 0 1 1 1 1 1 0 0 0 1 1 1 1 0 0 0 1 1 1 0 0 0 0 0 1 1 1 1 1 1 1 1 1 1 1
0 0 0 0 0 1 1 1 1 1 1 1 1 0 0 1 1 1 1 1 0 0 0 0 0 1 0 0 0 1 1 1 1 1 0 0 0 1 1 1 1 1 1 1 1 1 1 1 1
0 0 0 0 0 1 1 1 1 1 1 1 1 1 1 1 1 1 1 0 0 0 0 0 0 0 0 0 1 1 1 1 1 1 0 0 1 1 1 1 1 1 1 1 1 1 1 1 1
0 0 0 0 0 1 1 1 1 1 1 1 1 1 1 1 1 1 1 0 0 0 0 0 0 0 0 0 0 1 1 1 0 0 0 0 0 0 1 1 1 1 1 1 1 1 1 1 1
0 0 0 0 1 1 1 1 1 1 1 1 1 1 2 2 1 1 1 0 0 0 0 0 1 1 0 0 0 0 0 0 0 0 0 0 0 0 0 0 1 1 1 1 1 1 1 1 1
0 0 0 1 1 2 2 2 2 1 1 1 1 1 2 2 2 1 1 1 0 0 0 1 1 1 1 0 0 1 0 0 0 0 0 0 0 0 0 0 1 1 1 1 1 1 1 2 2
0 0 1 1 2 2 2 3 2 2 1 2 2 2 2 2 2 2 1 1 1 1 1 1 1 1 1 1 1 1 1 1 1 1 1 0 0 0 0 0 1 1 1 1 1 1 1 2 2
0 0 1 2 2 2 2 3 3 2 2 3 3 4 3 3 2 2 2 1 1 1 1 1 1 1 1 1 1 1 1 1 1 1 1 1 1 0 1 1 1 1 1 1 1 1 1 2 2
0 1 1 2 2 2 2 2 2 2 2 3 4 4 4 3 3 2 2 2 2 1 1 1 1 1 1 1 1 1 1 1 1 1 1 1 1 1 1 1 1 1 1 1 1 1 1 1 1
0 1 1 1 1 1 1 1 1 1 2 2 3 3 3 2 2 3 3 3 2 2 2 1 1 1 1 1 1 1 1 1 1 1 1 1 1 1 1 1 2 1 1 1 1 1 1 1 1
0 0 1 1 1 1 1 1 1 1 1 1 1 1 2 2 2 2 3 3 2 2 2 1 1 1 1 1 1 1 1 1 1 1 1 1 1 1 2 2 2 1 1 1 1 1 1 1 1
0 0 0 1 1 1 1 1 1 1 1 1 1 1 1 1 2 2 2 3 2 2 2 1 1 1 1 1 2 2 2 2 2 1 1 1 2 2 2 2 2 1 2 2 2 2 2 1 1
0 0 1 1 1 1 1 1 1 1 1 1 1 1 1 1 1 2 2 2 2 2 2 1 1 2 2 2 3 3 2 2 2 2 2 2 2 2 2 2 2 1 2 2 2 2 2 1 1
1 1 1 1 1 1 1 1 1 1 1 1 1 1 1 1 1 1 1 2 2 2 1 2 2 2 2 3 3 3 3 3 2 2 2 2 2 3 3 2 2 2 2 2 2 2 2 1 1
1 1 1 1 1 1 1 1 1 1 1 1 1 1 1 1 1 1 1 2 2 2 2 2 2 3 3 4 4 4 3 3 3 2 2 3 3 3 3 2 2 2 2 2 2 2 1 1 1
1 1 1 1 1 1 1 1 1 1 1 1 1 1 1 1 1 1 2 2 2 2 2 2 3 3 4 5 5 4 4 3 2 2 2 3 3 4 4 3 2 2 2 2 2 2 1 1 1
0 0 0 0 0 0 1 1 1 1 1 1 1 1 1 1 1 2 2 2 2 2 2 3 4 5 5 6 6 5 4 3 2 2 3 3 3 4 4 4 3 2 2 2 2 1 1 1 0
0 0 0 0 0 0 0 0 1 1 1 1 1 2 2 1 1 2 2 2 3 3 3 4 5 5 6 6 5 4 3 2 2 2 3 3 3 4 4 4 3 2 2 2 1 1 1 1 1
0 0 0 0 0 0 0 0 0 1 1 2 3 4 4 3 2 2 3 4 5 5 5 5 5 5 5 5 5 4 3 2 2 2 3 3 3 3 4 4 3 2 2 2 1 1 1 1 1
0 0 0 0 0 0 0 0 1 1 2 3 5 6 5 5 4 3 5 6 6 6 5 4 4 4 5 5 4 3 2 2 2 2 2 3 3 3 4 4 4 3 3 2 1 1 1 1 1
0 0 0 0 0 0 0 1 1 2 4 6 6 6 5 4 4 4 5 6 6 5 4 4 4 4 5 5 4 3 3 3 3 2 2 3 3 3 4 5 4 4 3 2 2 1 1 1 1
0 0 0 0 0 0 0 1 2 4 7 9 9 6 5 5 5 5 5 5 5 4 3 4 4 5 6 6 5 4 3 3 3 3 3 2 3 3 4 5 5 4 3 2 2 1 1 1 1
0 0 0 0 0 0 0 1 2 6 10 11 10 8 7 7 7 7 6 5 5 4 4 4 5 6 7 7 7 6 5 4 4 4 3 3 3 3 4 5 4 3 2 2 2 2 1 1 1
0 0 0 0 0 0 1 2 3 6 9 10 9 8 8 8 8 6 5 5 5 4 5 5 5 6 7 8 8 8 6 5 5 5 4 4 3 3 3 4 3 3 2 2 2 1 1 1 1
0 0 0 0 0 0 1 2 4 5 7 8 7 7 8 7 7 5 4 4 4 5 5 5 6 6 7 8 9 9 7 6 5 5 5 5 4 3 3 3 3 2 2 2 2 1 1 1 1

GEFSSGP_con_maxscp_252.txt.gz
SCP
1 1 0 0 0 0 0 0 0 0 0 0 0 0 0 0 0 0 0 0 0 0 0 1 1 1 1 1 0 0 1 0 0 0 0 0 0 0 0 0 0 0 1 1 1 1 1 1 1
0 0 0 0 0 0 0 0 0 0 0 0 0 0 0 0 0 0 0 0 0 0 0 1 1 1 1 1 0 0 0 0 0 0 0 0 0 0 0 0 0 1 1 1 1 1 1 1 1
0 0 0 0 0 0 0 0 0 0 0 0 0 0 0 0 0 0 0 0 0 0 0 1 1 1 1 1 0 0 0 0 0 0 0 0 0 0 0 0 0 1 1 1 1 1 1 1 1
0 0 0 0 0 0 0 1 1 1 0 0 0 0 0 0 0 0 0 0 0 0 0 0 1 1 1 1 1 0 0 0 0 0 0 0 0 0 0 0 1 1 1 1 1 1 1 1 1
0 0 0 0 0 0 0 1 1 1 1 1 0 0 0 0 0 0 0 0 0 0 0 0 1 1 1 1 1 0 0 0 0 0 0 1 1 1 1 1 1 1 1 1 1 1 1 1 1
0 0 0 0 0 0 0 1 1 1 1 1 1 0 0 0 0 0 0 0 0 0 0 0 1 1 1 1 1 0 0 0 0 0 0 1 1 1 1 1 1 1 1 1 1 1 1 1 1
0 0 0 0 0 0 0 1 1 1 1 0 0 0 0 0 0 0 0 0 0 0 0 0 0 0 0 0 0 1 0 0 0 0 0 1 1 1 1 1 1 1 1 1 0 1 1 1 1
0 0 0 0 0 0 1 1 1 1 1 0 0 0 0 0 0 0 0 0 0 0 0 0 0 0 0 0 0 1 1 0 0 0 0 0 1 1 1 1 1 1 1 0 0 0 1 1 1
0 0 0 0 0 1 1 1 1 1 1 0 0 0 1 1 0 0 0 0 0 0 0 0 0 0 0 0 0 0 0 0 0 0 0 0 0 1 1 1 1 1 1 0 0 0 1 1 1
0 0 0 0 1 1 1 1 1 1 1 1 0 1 1 1 1 0 0 0 0 0 0 0 0 0 0 0 0 0 0 0 0 0 0 0 0 0 1 1 1 1 1 0 1 1 1 1 1
0 0 1 1 1 1 2 2 1 1 1 1 1 1 1 1 1 0 0 0 0 0 0 0 0 0 0 0 0 0 0 0 0 0 0 0 0 0 0 1 1 0 0 0 1 1 1 1 1
1 1 1 1 2 2 1 1 1 1 1 1 1 1 1 1 1 0 0 0 0 0 0 0 0 0 0 0 0 0 0 0 0 0 0 0 0 0 0 0 0 0 0 0 1 1 1 1 1
1 1 1 1 1 1 1 1 1 1 1 1 1 1 2 1 1 0 0 0 0 0 0 0 0 0 0 0 0 0 0 0 0 0 0 1 1 1 0 0 0 0 0 1 1 1 1 1 1
1 1 1 1 1 1 1 1 1 1 1 1 1 1 1 1 1 1 0 0 0 0 0 0 0 0 0 0 0 0 0 1 1 1 1 1 1 1 1 1 1 1 1 1 1 1 1 1 1
0 0 0 0 0 0 0 0 0 0 1 1 1 1 1 1 1 1 1 1 0 0 1 0 0 0 0 0 0 0 1 1 1 1 1 1 1 1 1 1 1 1 1 1 1 1 1 1 1
0 0 0 0 0 0 0 0 0 0 1 1 1 1 1 1 1 1 1 1 1 1 1 1 1 0 0 0 1 1 1 1 1 1 1 1 1 1 1 1 1 1 1 1 1 1 1 1 1
0 0 0 0 0 0 0 0 0 0 1 0 0 1 1 1 1 1 1 1 1 1 1 1 1 1 1 1 1 1 1 1 1 0 0 1 1 1 1 1 1 1 1 2 2 1 1 1 1
0 0 0 0 0 0 0 0 0 1 1 0 0 1 1 1 1 1 1 1 1 1 1 1 1 1 1 1 1 1 1 1 1 1 1 1 1 1 1 1 1 2 2 2 1 1 1 1 1
0 0 0 0 0 0 0 0 0 1 1 1 1 1 1 1 1 1 1 1 1 1 1 1 1 1 1 1 1 1 1 1 1 1 1 1 2 2 2 2 2 2 2 2 2 1 1 1 0
0 0 0 0 0 0 0 0 0 0 1 1 1 1 1 1 1 1 1 1 1 1 1 1 1 1 1 1 1 1 1 1 1 1 2 2 2 2 2 2 2 2 2 2 2 2 1 0 0
0 0 0 0 0 0 0 0 0 0 0 0 1 1 1 1 1 1 1 1 1 1 1 1 1 1 1 1 1 2 2 1 1 1 2 2 2 2 2 2 2 2 2 2 2 1 1 0 0
0 0 0 0 0 0 0 0 0 0 0 0 0 1 1 1 1 1 1 1 1 1 1 1 1 1 1 1 1 2 2 1 1 1 1 1 2 2 2 2 3 3 2 2 1 1 1 1 1
0 0 0 0 0 0 0 0 0 0 0 0 0 0 1 1 2 1 1 1 1 1 1 2 2 1 1 1 1 1 1 1 1 1 1 1 1 1 2 2 3 2 2 2 1 1 1 1 1
0 0 0 0 0 0 0 0 0 0 0 0 0 0 0 1 1 2 1 1 1 1 2 2 2 2 1 1 1 1 1 1 1 1 1 1 1 1 2 2 2 2 2 2 1 1 1 1 1
0 0 0 0 0 0 0 0 0 0 0 0 0 0 1 1 1 2 2 2 2 2 2 2 2 2 2 2 1 1 1 1 1 1 1 1 1 1 2 2 2 2 2 1 1 1 1 1 1
0 0 0 0 0 0 0 0 0 0 0 0 0 1 1 2 3 3 3 3 3 3 3 3 2 2 2 2 2 1 1 1 1 1 1 1 2 2 2 2 2 2 2 1 1 1 1 1 1
0 0 0 0 0 0 0 1 1 0 1 1 2 2 3 5 6 6 6 5 5 5 4 3 3 3 2 2 2 2 1 1 1 2 2 2 2 2 2 2 2 2 2 2 2 2 1 1 1
0 0 0 0 0 0 0 1 1 1 2 3 4 4 6 8 9 8 7 6 5 4 4 4 3 3 3 3 3 2 2 2 2 2 2 2 2 2 2 2 2 2 2 2 2 2 2 2 1
0 0 0 0 0 0 0 1 2 2 2 3 4 5 7 8 8 6 5 4 4 3 4 4 4 4 4 3 3 2 2 2 2 2 2 2 2 2 2 2 2 2 2 2 2 2 2 2 2
0 0 0 0 0 0 0 1 2 3 3 3 4 4 6 6 6 4 3 3 3 3 4 4 4 4 3 3 3 3 2 2 2 2 2 2 2 2 2 2 2 2 2 2 2 2 2 2 2

GEFSSGP_con_maxscp_258.txt.gz
SCP
1 1 1 1 1 0 0 0 0 0 0 0 0 0 0 0 0 0 0 0 0 0 0 0 0 0 0 0 0 1 1 1 1 1 1 1 1 1 1 1 1 1 1 1 1 1 1 1 1
1 1 1 1 0 0 0 0 0 0 0 0 0 0 0 0 0 0 0 0 0 0 0 0 0 0 0 0 0 1 1 1 1 1 1 1 1 1 1 1 1 1 1 1 1 1 1 1 1
1 1 1 1 0 0 0 0 0 0 0 0 0 0 0 0 0 0 0 0 0 0 0 0 0 0 0 0 0 0 0 1 1 1 1 1 1 1 1 1 1 1 1 1 1 1 1 1 1
1 1 1 0 0 0 0 0 0 0 0 0 0 0 0 0 0 0 0 0 0 0 0 0 0 0 0 0 0 0 0 0 0 1 1 1 1 1 1 1 1 1 1 1 1 1 1 1 1
0 0 0 0 0 0 0 0 0 0 0 0 0 0 0 1 0 0 0 0 0 0 0 0 0 0 0 0 0 0 0 0 0 0 0 0 1 1 1 1 1 1 1 1 1 1 1 1 1
0 0 0 0 0 0 0 0 0 0 0 0 0 0 0 1 0 0 0 0 0 0 0 0 0 0 1 1 1 1 1 0 0 0 0 1 1 1 1 1 1 1 1 1 1 1 1 1 1
0 0 0 0 0 0 0 0 0 0 0 0 0 0 1 1 0 0 0 0 0 0 1 1 1 1 1 1 1 1 1 1 0 0 1 1 1 1 1 1 1 1 1 1 1 1 1 1 1
0 0 0 0 0 0 0 1 1 1 1 1 1 1 1 1 0 0 0 0 0 0 1 1 1 1 1 1 1 1 1 1 1 1 1 1 1 1 1 1 1 1 1 1 1 1 1 1 1
0 0 0 0 0 0 0 1 1 1 1 1 1 1 1 1 0 0 0 0 0 0 0 1 1 1 1 1 1 1 1 1 1 1 1 1 1 1 1 1 1 1 1 1 1 1 1 1 1
0 0 0 0 0 0 1 1 1 1 1 1 1 1 1 0 0 0 0 0 0 0 0 0 0 1 1 1 1 1 1 1 1 1 1 1 1 1 1 1 1 1 1 1 1 1 1 1 1
1 1 1 1 1 1 1 1 1 1 1 1 1 1 0 0 0 0 0 0 0 0 0 0 0 1 1 1 1 1 1 1 1 1 1 1 1 1 1 1 1 1 1 1 1 1 1 1 1
1 1 1 1 0 0 1 1 1 1 1 0 1 1 0 0 0 0 0 0 0 0 0 0 1 1 1 1 1 1 1 1 1 1 1 1 1 1 1 1 1 1 1 1 1 1 1 1 1
1 1 1 0 0 0 0 1 1 1 0 0 1 1 0 0 0 0 0 0 0 0 0 0 1 1 1 1 1 1 1 1 1 1 1 1 1 1 1 1 1 1 1 1 1 1 1 1 1
0 0 0 0 0 0 0 0 1 1 1 1 1 1 0 0 0 0 0 0 0 0 0 1 1 1 1 1 1 1 1 1 1 1 1 1 1 1 1 1 1 1 1 1 1 1 1 2 2
0 0 0 0 0 0 0 0 1 1 1 0 1 1 0 0 0 0 0 0 0 1 1 1 1 1 1 1 1 1 1 1 1 1 1 1 1 1 1 1 1 2 2 2 2 2 2 3 3
0 0 0 0 0 0 0 0 0 1 0 0 0 0 0 0 0 0 0 0 0 1 1 1 1 1 1 1 1 1 1 1 1 1 1 1 1 2 2 2 2 2 2 3 3 3 4 4 4
0 0 0 0 0 0 0 0 0 0 0 0 0 0 0 1 1 1 0 0 0 1 1 1 1 1 1 1 1 1 1 1 1 1 1 2 2 2 2 2 2 3 3 3 3 4 5 6 6
0 0 0 0 0 0 0 0 1 0 0 0 0 0 0 0 1 1 1 1 1 1 1 1 1 1 2 2 2 2 2 2 1 2 2 2 2 2 3 3 3 4 4 4 4 5 6 6 6
0 0 0 0 0 1 1 1 1 1 1 0 0 0 0 1 1 1 1 1 1 1 1 1 1 2 3 3 3 3 2 2 2 2 2 2 2 2 3 3 4 4 4 4 4 5 5 5 4
0 0 0 0 0 1 1 1 1 1 1 0 0 0 0 1 1 1 1 1 1 1 1 1 2 3 3 4 3 3 3 2 2 2 2 2 2 2 3 3 3 4 4 4 4 5 4 4 3
0 0 0 0 0 0 1 1 1 1 1 0 0 0 0 1 1 1 1 1 1 1 1 2 2 3 4 3 3 3 3 2 2 2 2 2 2 2 2 2 3 3 4 4 4 4 3 3 2
0 0 0 0 0 0 0 0 0 0 0 0 0 0 0 1 1 1 1 1 2 2 2 2 2 3 3 3 2 2 2 2 2 2 2 2 2 2 2 2 3 3 3 3 3 3 3 2 1
0 0 0 0 0 0 0 0 0 0 0 0 0 0 1 1 1 1 1 2 2 2 3 2 3 3 3 3 3 2 2 2 2 2 2 2 2 2 2 2 3 3 3 3 3 3 2 1 1
0 0 0 0 0 0 0 0 0 1 1 1 1 1 1 1 1 1 2 2 2 3 3 3 3 3 3 3 3 3 2 2 2 2 2 3 3 2 2 3 3 3 3 3 3 2 2 2 1
0 0 0 0 0 0 0 0 0 1 1 1 1 1 1 1 2 2 2 2 2 3 2 2 3 3 3 3 3 3 3 3 3 3 3 3 2 2 2 3 3 3 3 3 3 2 2 2 2
0 0 0 0 0 0 0 0 0 1 1 1 1 2 2 2 2 3 3 2 2 3 3 2 3 3 4 4 4 4 4 4 4 3 3 2 2 2 2 3 3 3 3 3 3 3 2 2 2
0 0 0 0 0 0 0 0 0 1 1 1 1 2 2 3 3 3 3 3 4 4 4 4 4 4 5 4 4 4 4 5 5 4 3 2 2 2 2 3 4 4 4 3 3 3 3 3 3
0 0 0 0 0 0 0 0 0 0 1 1 2 2 3 3 4 4 4 5 5 6 6 6 6 6 5 5 4 4 5 5 6 5 3 3 2 3 3 4 4 4 4 4 4 3 3 3 3
0 0 0 0 0 0 0 0 1 1 1 1 2 2 3 4 4 5 6 6 7 7 7 6 6 6 5 4 4 4 5 5 5 5 4 3 3 3 4 4 4 4 4 4 4 3 3 3 3
0 0 0 0 0 0 0 1 2 2 1 1 2 3 4 5 5 6 6 7 8 7 6 5 5 5 4 4 4 5 5 5 5 5 5 4 3 4 4 4 4 3 3 4 4 3 3 3 3

GEFSSGP_con_maxscp_264.txt.gz
SCP
1 2 2 3 2 1 1 0 0 0 0 0 0 0 0 0 0 0 0 0 0 1 0 0 0 0 0 0 0 0 0 0 0 0 0 0 1 1 1 1 1 1 1 1 1 1 1 1 1
1 2 2 2 1 1 0 0 0 0 0 0 0 0 0 0 0 0 0 0 0 0 0 0 0 0 0 0 0 0 0 0 0 0 0 0 0 1 1 1 1 1 1 1 1 1 1 1 1
2 2 2 1 1 0 0 0 0 0 0 0 0 0 1 1 1 0 0 0 0 1 1 1 1 1 0 0 0 0 0 0 0 0 0 0 0 1 1 1 1 1 1 1 1 1 1 1 0
2 2 2 1 0 0 0 0 0 0 0 0 0 0 1 1 1 0 0 0 1 1 1 1 1 1 1 1 0 0 0 0 0 0 0 1 1 1 1 1 1 1 1 1 1 1 1 0 0
3 2 2 1 0 0 0 0 0 0 0 0 0 1 1 1 1 0 0 1 1 1 1 1 1 1 1 1 1 0 0 0 0 0 0 1 1 1 1 1 1 1 1 1 1 1 1 0 0
2 2 1 0 0 0 0 0 0 0 0 0 0 1 1 1 1 0 0 1 1 1 1 1 2 2 2 1 1 1 0 0 0 0 0 1 1 1 1 1 1 1 1 1 1 1 1 1 0
1 1 0 0 0 0 0 0 0 0 1 1 1 1 1 1 0 0 1 1 1 1 2 2 2 2 2 2 2 1 1 1 0 0 1 1 1 1 1 1 1 1 1 1 1 1 1 1 1
0 0 0 0 0 0 0 0 0 1 1 1 1 1 1 0 0 0 0 1 1 1 1 2 3 3 2 3 2 2 2 1 1 1 1 1 1 1 1 1 1 1 1 1 1 1 1 1 1
0 0 0 0 0 0 0 1 1 1 1 1 1 1 1 0 0 0 0 0 0 1 1 1 2 2 2 3 3 3 2 2 1 1 1 1 1 1 1 2 2 1 1 1 1 1 1 0 0
0 0 0 0 0 0 1 1 1 1 1 1 1 1 0 0 0 0 1 0 0 0 1 1 1 1 1 2 3 3 3 2 2 2 1 1 1 1 2 2 2 2 2 1 1 1 1 1 1
0 0 0 0 0 1 1 1 1 1 0 1 1 1 0 0 0 0 1 1 0 0 1 1 1 1 1 1 2 2 2 2 2 2 2 2 2 2 2 2 3 3 2 2 1 1 1 1 1
0 0 0 0 1 1 1 1 1 0 0 1 1 1 1 0 0 1 1 1 1 1 1 1 1 1 1 1 2 2 2 2 3 2 2 2 2 2 2 2 2 2 2 2 2 2 2 2 2
0 0 0 0 1 1 1 1 1 0 0 0 1 1 1 1 1 1 1 1 1 1 1 1 1 2 2 2 2 2 2 2 3 3 2 2 2 2 2 2 2 2 3 3 3 3 3 3 3
0 0 0 0 1 1 1 1 0 0 0 1 1 1 1 1 1 1 1 1 1 1 1 1 2 2 2 2 2 2 2 2 3 3 3 2 2 2 2 2 3 3 3 4 4 4 4 4 3
0 0 0 0 0 1 0 0 0 0 0 1 1 1 1 1 2 1 1 1 1 1 1 1 2 2 2 2 2 2 3 3 3 3 4 3 2 2 2 2 3 3 4 4 5 5 5 4 4
0 0 0 0 0 0 0 0 0 0 0 0 1 1 1 2 2 2 2 1 1 2 2 1 1 2 3 3 3 3 3 3 3 4 5 4 3 2 2 3 3 4 4 5 5 5 5 5 5
0 0 0 0 0 0 0 0 1 1 0 0 1 1 1 2 2 2 2 2 2 2 2 2 2 2 3 3 3 3 4 4 4 5 5 5 4 3 3 3 3 4 5 5 5 5 5 5 5
0 0 0 0 0 0 0 0 1 1 0 1 1 1 1 2 2 2 2 2 2 2 3 4 4 4 4 4 4 4 5 5 5 5 6 6 5 4 3 3 4 4 5 5 5 5 6 5 5
0 0 0 0 0 0 0 0 1 1 1 1 1 1 1 2 2 2 2 2 2 3 4 6 6 6 6 5 5 5 5 5 5 5 5 6 6 5 4 4 4 5 5 5 5 6 6 6 5
0 0 0 0 0 0 0 0 1 1 1 1 1 1 2 2 2 2 2 2 3 4 5 6 8 9 8 7 6 5 5 5 5 5 5 5 6 5 4 4 4 4 4 4 5 7 7 6 5
0 0 0 0 0 1 1 1 1 1 1 1 1 1 2 2 2 2 2 2 3 4 5 6 8 9 9 7 6 5 5 5 5 6 6 6 6 5 4 4 3 4 4 4 6 7 6 5 4
0 0 0 0 0 0 1 1 1 1 1 1 1 2 2 3 3 2 3 3 3 4 4 6 8 9 9 7 5 5 5 4 4 6 6 6 6 5 4 3 3 3 3 4 6 6 5 4 3
0 0 0 0 0 0 0 1 1 1 2 1 1 2 3 3 3 3 3 4 4 4 4 6 8 10 9 7 5 4 4 3 3 5 6 7 5 4 3 3 4 3 4 5 5 5 4 3 2
0 0 0 0 1 0 0 1 1 1 1 2 2 3 4 4 3 4 5 6 6 5 5 6 9 12 10 8 5 4 4 3 3 5 6 6 5 4 4 5 5 4 4 5 5 4 3 3 2
0 0 0 1 1 1 1 1 1 1 2 2 3 4 4 4 4 6 8 8 7 5 5 8 11 13 12 9 6 5 4 4 4 4 5 4 5 5 6 6 6 6 6 6 5 5 4 4 3
0 0 0 1 1 1 1 1 1 2 2 3 4 4 4 4 5 7 8 8 7 7 7 8 11 12 12 10 7 5 5 4 4 4 5 5 6 7 7 7 8 8 7 7 6 6 5 5 4
0 0 0 0 1 1 1 1 1 2 2 3 3 3 3 5 7 8 8 8 8 8 8 8 10 11 11 9 7 6 5 4 4 5 6 7 8 7 6 6 7 8 8 7 6 6 6 5 5
1 0 0 0 1 1 1 1 1 2 2 2 2 3 3 5 8 8 8 7 7 8 8 8 10 11 10 8 7 7 6 5 6 7 9 10 9 7 5 4 5 6 7 7 6 6 6 5 5
1 1 0 1 1 1 1 1 1 2 2 2 3 3 5 7 9 9 7 6 5 6 7 8 9 10 9 8 7 7 7 6 7 8 9 11 11 8 5 4 4 5 5 6 6 5 5 5 5
1 1 1 1 1 1 1 1 1 1 2 3 3 4 7 10 11 9 7 5 4 4 5 7 8 10 9 8 7 7 7 7 7 8 8 10 12 9 6 4 4 5 5 5 6 5 5 5 5